User: anonymous   Login
Location: Unspecified
(0.0000°N, 0.0000°E)
Time: 15:14:50
(UTC+00:00)
Language:

AMOS 1 - Orbit

View from above orbital plane
View from above orbital plane
View from above satellite
View from above satellite

Ground track
Ground track

The orbit data is extracted from the following two-line orbital elements,

1 23865U 96030B   16272.64459480 -.00000067  00000-0  00000+0 0  9993
2 23865   6.6145  55.8486 0012631 126.5365 119.5035  0.97116479 74105
Epoch (UTC): 28 September 2016 15:28:12
Eccentricity: 0.0012631
inclination: 6.6145°
perigee height: 36640 km
apogee height: 36749 km
right ascension of ascending node: 55.8486°
argument of perigee: 126.5365°
revolutions per day: 0.97116479
mean anomaly at epoch: 119.5035°
orbit number at epoch: 7410

The dashed part of the orbit path shows where the satellite is in the earth's shadow,  

DLR